Regional Weather Roundup
Issued by NWS Huntsville, AL

Home | Current Version | Previous Version | Text Only | Print | Product List | Glossary On
Versions: 1 2 3 4 5 6 7 8 9 10 11 12 13 14 15 16 17 18 19 20 21 22 23 24 25 26 27
000
ASUS44 KHUN 270610
RWRHUN

WEATHER ROUNDUP FOR THE TENNESSEE VALLEY
NATIONAL WEATHER SERVICE HUNTSVILLE AL
1200 AM CST MON FEB 27 2017

ALZ001>004-270700-
NORTHWEST ALABAMA

CITY           SKY/WX    TMP DP  RH WIND       PRES   REMARKS
COURTLAND HCN    N/A     50 N/A N/A NE3         N/A
RUSSELLVILLE     N/A     54 N/A N/A MISG        N/A
SHOALS AIRPORT CLOUDY    50  30  46 E6        30.14S
6HR MIN TEMP:  49; 6HR MAX TEMP:  53;

SHOALS TVA RES   N/A     52 N/A N/A MISG        N/A
$$

ALZ005>007-016-270700-
NORTH CENTRAL ALABAMA

CITY           SKY/WX    TMP DP  RH WIND       PRES   REMARKS
CULLMAN AG STN   N/A     48 N/A N/A E3          N/A
DECATUR AP     MOCLDY    50  31  48 NE3       30.16R
6HR MIN TEMP:  50; 6HR MAX TEMP:  56;

HUNTSVILLE AP  MOCLDY    53  28  38 E6        30.14R
6HR MIN TEMP:  47; 6HR MAX TEMP:  56;

MERIDIANVILLE  CLOUDY    52  21  30 CALM      30.16R
REDSTONE ARSN  CLOUDY    54  25  32 S3        30.13R
VINEMONT AP    FAIR      50  24  35 SE8       30.14S
$$

ALZ008>010-270700-
NORTHEAST ALABAMA

CITY           SKY/WX    TMP DP  RH WIND       PRES   REMARKS
ALBERTVILLE    CLOUDY    52  32  46 S6        30.13S
FORT PAYNE     CLOUDY    52  12  20 S5        30.15F
SCOTTSBORO AP  CLOUDY    46  30  53 CALM      30.16F
SCOTTSBORO HCN   N/A     46 N/A N/A MISG        N/A
VALLEY HEAD      N/A     52 N/A N/A MISG        N/A
$$

TNZ076-096-097-270700-
SOUTHEASTERN MIDDLE TENNESSEE

CITY           SKY/WX    TMP DP  RH WIND       PRES   REMARKS
TULLAHOMA      MOCLDY    46  23  39 SW3       30.17R
WINCHESTER     CLOUDY    50  25  37 CALM      30.16R
$$

...SURROUNDING SITES...

CITY           SKY/WX    TMP DP  RH WIND       PRES   REMARKS
ATLANTA        PTCLDY    49  24  37 SE6       30.21F
ANNISTON       CLEAR     49  28  44 E7        30.17S
BIRMINGHAM     PTCLDY    57  23  26 S8G20     30.16S
CHATTANOOGA    PTCLDY    43  32  65 CALM      30.19F
CORINTH        CLOUDY    52  34  50 CALM      30.10S
DALTON         MOCLDY    37  32  81 CALM      30.20R
GADSDEN        CLOUDY    43  34  70 CALM      30.17S
GOLDEN TRNGL   PTCLDY    54  28  37 S13       30.05S
HALEYVILLE     MOCLDY    53  25  33 VRB3      30.14R
JACKSON TN     LGT RAIN  52  40  63 S6G18     30.13S
MEMPHIS        LGT RAIN  53  39  59 N8G17     30.09R
NASHVILLE      CLOUDY    49  28  44 VRB6      30.17S
OXFORD MS      FAIR      52  30  43 SE6       30.07F
ROME           CLEAR     38  30  73 W3        30.19S
SAVANNAH       CLOUDY    48  37  66 CALM      30.12S
TUPELO         CLOUDY    53  28  38 E5        30.08F
TUSCALOOSA     CLEAR     57  24  28 SE9       30.12F
$$

...GULF COAST WEATHER...

CITY           SKY/WX    TMP DP  RH WIND       PRES   REMARKS
GULFPORT       CLOUDY    66  58  75 SE12      30.13R
PASCAGOULA     CLEAR     47  44  90 N3        30.15R
MOBILE         CLEAR     48  44  86 CALM      30.15R
GULF SHORES    CLEAR     63  49  58 SE17G26   30.13F
PENSACOLA      CLEAR     65  50  58 SE15      30.13F
DESTIN         CLEAR     58  53  84 E5        30.16F
PANAMA CITY    CLEAR     56  42  60 E6        30.18F
APPALACHICOLA  CLEAR     53  43  68 E6        30.18F
$$





USA.gov is the U.S. government's official web portal to all federal, state and local government web resources and services.